MSR743 HECA-LCLK

Flight info

Callsign MSR743
Flight time 0h 56m
Altitude 24000
Route CVO A16 DEGDI/N0446F350 DCT SENTO/N0448F360 Q777 IMPIP N307 LAKTO N71 STEPA/N0444F350 DCT ODELO DCT EMEDA
Aircraft A320/M-SDE3FGHIRWY/LB1

Departure

Time 2026-05-06 17:02
Airport Cairo International Airport (HECA)

Arrival

Time 2026-05-06 17:58
Airport Larnaca International Airport (LCLK)
Time Latitude Longitude Altitude Speed Heading
2026-05-06 16:46 30.10225 31.39151 374 ft 0 kts 255°
2026-05-06 16:53 30.10226 31.39155 374 ft 3 kts 255°
2026-05-06 16:54 30.10234 31.39184 374 ft 4 kts 250°
2026-05-06 16:54 30.10242 31.39211 374 ft 2 kts 255°
2026-05-06 16:54 30.10247 31.39237 374 ft 4 kts 274°
2026-05-06 16:54 30.10242 31.39260 374 ft 4 kts 290°
2026-05-06 16:55 30.10240 31.39288 374 ft 4 kts 255°
2026-05-06 16:55 30.10245 31.39313 374 ft 4 kts 254°
2026-05-06 16:55 30.10250 31.39333 374 ft 0 kts 255°
2026-05-06 16:57 30.10250 31.39332 374 ft 0 kts 255°
2026-05-06 16:57 30.10249 31.39329 374 ft 2 kts 255°
2026-05-06 16:57 30.10240 31.39287 374 ft 7 kts 261°
2026-05-06 16:58 30.10262 31.39230 374 ft 9 kts 320°
2026-05-06 16:58 30.10314 31.39213 374 ft 14 kts 346°
2026-05-06 16:58 30.10440 31.39219 374 ft 15 kts 72°
2026-05-06 16:58 30.10469 31.39349 374 ft 18 kts 76°
2026-05-06 16:59 30.10491 31.39446 374 ft 20 kts 76°
2026-05-06 16:59 30.10528 31.39608 374 ft 22 kts 75°
2026-05-06 16:59 30.10501 31.39759 374 ft 22 kts 158°
2026-05-06 16:59 30.10371 31.39792 374 ft 17 kts 190°
2026-05-06 17:00 30.10276 31.39684 374 ft 21 kts 229°
2026-05-06 17:00 30.10177 31.39577 374 ft 18 kts 188°
2026-05-06 17:00 30.10071 31.39650 374 ft 19 kts 140°
2026-05-06 17:00 30.10002 31.39780 374 ft 21 kts 90°
2026-05-06 17:01 30.10054 31.39939 370 ft 24 kts 49°
2026-05-06 17:01 30.10269 31.40225 374 ft 81 kts 48°
2026-05-06 17:01 30.10771 31.40893 372 ft 137 kts 49°
2026-05-06 17:01 30.11471 31.41836 616 ft 160 kts 46°
2026-05-06 17:02 30.12200 31.42813 1247 ft 161 kts 45°
2026-05-06 17:02 30.12942 31.43795 1821 ft 167 kts 45°
2026-05-06 17:02 30.13884 31.44689 2116 ft 186 kts 17°
2026-05-06 17:02 30.15224 31.44599 2387 ft 210 kts 341°
2026-05-06 17:03 30.16678 31.43964 2755 ft 236 kts 341°
2026-05-06 17:03 30.18261 31.43298 3391 ft 250 kts 341°
2026-05-06 17:03 30.19921 31.42615 4334 ft 255 kts 341°
2026-05-06 17:03 30.21605 31.41932 5279 ft 259 kts 341°
2026-05-06 17:04 30.23324 31.41245 6211 ft 264 kts 341°
2026-05-06 17:04 30.25074 31.40551 7108 ft 267 kts 341°
2026-05-06 17:04 30.26845 31.39847 7987 ft 271 kts 340°
2026-05-06 17:04 30.28657 31.39127 8818 ft 277 kts 340°
2026-05-06 17:05 30.30467 31.38407 9658 ft 281 kts 340°
2026-05-06 17:05 30.32366 31.37650 10336 ft 292 kts 339°
2026-05-06 17:05 30.34335 31.36859 10582 ft 315 kts 339°
2026-05-06 17:05 30.36475 31.36003 10870 ft 334 kts 339°
2026-05-06 17:06 30.38701 31.35117 11470 ft 341 kts 339°
2026-05-06 17:06 30.40954 31.34221 12177 ft 344 kts 339°
2026-05-06 17:06 30.43232 31.33317 12892 ft 347 kts 339°
2026-05-06 17:06 30.45534 31.32404 13607 ft 351 kts 339°
2026-05-06 17:07 30.47932 31.31734 14237 ft 358 kts 348°
2026-05-06 17:07 30.50404 31.31286 14844 ft 361 kts 348°
2026-05-06 17:07 30.52895 31.30832 15449 ft 364 kts 348°
2026-05-06 17:07 30.55420 31.30369 16057 ft 368 kts 348°
2026-05-06 17:08 30.57963 31.29903 16664 ft 372 kts 348°
2026-05-06 17:08 30.60534 31.29432 17263 ft 375 kts 348°
2026-05-06 17:08 30.63093 31.28963 17870 ft 379 kts 348°
2026-05-06 17:08 30.65715 31.28481 18482 ft 383 kts 348°
2026-05-06 17:09 30.68365 31.27990 19054 ft 386 kts 347°
2026-05-06 17:09 30.71026 31.27496 19650 ft 389 kts 347°
2026-05-06 17:09 30.73709 31.26998 20265 ft 392 kts 347°
2026-05-06 17:09 30.76420 31.26494 20856 ft 395 kts 347°
2026-05-06 17:10 30.79147 31.25988 21436 ft 398 kts 347°
2026-05-06 17:10 30.81898 31.25481 21996 ft 401 kts 347°
2026-05-06 17:10 30.84664 31.24974 22536 ft 404 kts 347°
2026-05-06 17:10 30.87420 31.24467 23060 ft 406 kts 347°
2026-05-06 17:11 30.90222 31.23949 23627 ft 408 kts 347°
2026-05-06 17:11 30.93033 31.23424 24122 ft 409 kts 347°
2026-05-06 17:11 30.95853 31.22899 24581 ft 411 kts 347°
2026-05-06 17:11 30.98684 31.22375 25003 ft 413 kts 347°
2026-05-06 17:12 31.01530 31.21847 25416 ft 415 kts 347°
2026-05-06 17:12 31.04390 31.21315 25822 ft 417 kts 347°
2026-05-06 17:12 31.07271 31.20777 26215 ft 420 kts 347°
2026-05-06 17:12 31.10128 31.20247 26591 ft 422 kts 347°
2026-05-06 17:13 31.13042 31.19708 26969 ft 425 kts 347°
2026-05-06 17:13 31.15977 31.19164 27363 ft 427 kts 347°
2026-05-06 17:13 31.18928 31.18623 27756 ft 430 kts 349°
2026-05-06 17:13 31.21937 31.18452 28129 ft 437 kts 359°
2026-05-06 17:14 31.24982 31.18898 28500 ft 445 kts
2026-05-06 17:14 31.27930 31.19962 28853 ft 452 kts 19°
2026-05-06 17:14 31.30785 31.21586 29213 ft 458 kts 24°
2026-05-06 17:14 31.33624 31.23298 29555 ft 460 kts 24°
2026-05-06 17:15 31.36478 31.25021 29904 ft 462 kts 24°
2026-05-06 17:15 31.39350 31.26752 30237 ft 465 kts 23°
2026-05-06 17:15 31.42234 31.28484 30520 ft 467 kts 23°
2026-05-06 17:15 31.45109 31.30209 30928 ft 466 kts 23°
2026-05-06 17:16 31.47996 31.31943 31354 ft 465 kts 23°
2026-05-06 17:16 31.50877 31.33653 31768 ft 463 kts 20°
2026-05-06 17:16 31.53825 31.34957 32176 ft 457 kts 12°
2026-05-06 17:16 31.56914 31.35720 32593 ft 451 kts
2026-05-06 17:17 31.60026 31.35922 33034 ft 444 kts 354°
2026-05-06 17:17 31.63090 31.35657 33491 ft 441 kts 351°
2026-05-06 17:17 31.66143 31.35335 33931 ft 439 kts 351°
2026-05-06 17:17 31.69189 31.35017 34334 ft 438 kts 351°
2026-05-06 17:18 31.72231 31.34703 34700 ft 438 kts 351°
2026-05-06 17:18 31.75267 31.34391 35011 ft 439 kts 350°
2026-05-06 17:18 31.78279 31.34080 35097 ft 439 kts 350°
2026-05-06 17:19 31.84382 31.33444 35111 ft 440 kts 350°
2026-05-06 17:19 31.90486 31.32810 35101 ft 440 kts 350°
2026-05-06 17:20 31.96580 31.32162 35094 ft 440 kts 350°
2026-05-06 17:20 32.02686 31.31510 35109 ft 440 kts 350°
2026-05-06 17:21 32.08788 31.30881 35112 ft 441 kts 352°
2026-05-06 17:21 32.11836 31.31006 35111 ft 447 kts
2026-05-06 17:21 32.14884 31.31871 35110 ft 454 kts 15°
2026-05-06 17:21 32.17761 31.33488 35108 ft 462 kts 28°
2026-05-06 17:22 32.20322 31.35818 35110 ft 469 kts 41°
2026-05-06 17:22 32.22427 31.38774 35108 ft 474 kts 52°
2026-05-06 17:22 32.24328 31.41994 35104 ft 475 kts 52°
2026-05-06 17:23 32.28108 31.48403 35111 ft 476 kts 51°
2026-05-06 17:23 32.31890 31.54791 35105 ft 476 kts 51°
2026-05-06 17:24 32.35674 31.61180 35099 ft 477 kts 51°
2026-05-06 17:24 32.39473 31.67614 35100 ft 477 kts 51°
2026-05-06 17:25 32.43272 31.74065 35125 ft 477 kts 51°
2026-05-06 17:25 32.47068 31.80524 35111 ft 478 kts 51°
2026-05-06 17:26 32.50870 31.86998 35107 ft 478 kts 51°
2026-05-06 17:26 32.54646 31.93445 35108 ft 479 kts 51°
2026-05-06 17:27 32.58441 31.99941 35132 ft 479 kts 51°
2026-05-06 17:27 32.62236 32.06450 35122 ft 479 kts 51°
2026-05-06 17:28 32.66027 32.12945 35114 ft 479 kts 51°
2026-05-06 17:28 32.69815 32.19407 35111 ft 479 kts 51°
2026-05-06 17:29 32.73624 32.25907 35126 ft 479 kts 51°
2026-05-06 17:29 32.77420 32.32412 35116 ft 479 kts 51°
2026-05-06 17:30 32.81227 32.38871 35107 ft 476 kts 46°
2026-05-06 17:30 32.85794 32.44480 35100 ft 471 kts 39°
2026-05-06 17:31 32.90514 32.49905 35119 ft 471 kts 38°
2026-05-06 17:31 32.95208 32.55313 35110 ft 471 kts 38°
2026-05-06 17:32 32.99912 32.60751 35105 ft 471 kts 39°
2026-05-06 17:32 33.04630 32.66207 35095 ft 472 kts 39°
2026-05-06 17:33 33.09346 32.71677 35116 ft 472 kts 38°
2026-05-06 17:33 33.14020 32.77113 35108 ft 472 kts 38°
2026-05-06 17:34 33.18736 32.82585 35104 ft 473 kts 38°
2026-05-06 17:34 33.23452 32.88071 35126 ft 473 kts 38°
2026-05-06 17:35 33.28165 32.93581 35117 ft 473 kts 38°
2026-05-06 17:35 33.32880 32.99093 35111 ft 474 kts 38°
2026-05-06 17:36 33.39937 33.07346 35137 ft 474 kts 38°
2026-05-06 17:36 33.44658 33.12890 35121 ft 474 kts 38°
2026-05-06 17:37 33.47007 33.15653 34846 ft 473 kts 38°
2026-05-06 17:37 33.49358 33.18416 34599 ft 474 kts 37°
2026-05-06 17:37 33.51692 33.21158 33941 ft 477 kts 37°
2026-05-06 17:37 33.54091 33.23970 32873 ft 483 kts 37°
2026-05-06 17:38 33.56498 33.26798 31889 ft 486 kts 38°
2026-05-06 17:38 33.58917 33.29650 31062 ft 488 kts 38°
2026-05-06 17:38 33.61321 33.32500 30509 ft 482 kts 38°
2026-05-06 17:38 33.63679 33.35280 29806 ft 478 kts 36°
2026-05-06 17:39 33.66251 33.37724 29192 ft 464 kts 26°
2026-05-06 17:39 33.69015 33.39603 28607 ft 450 kts 18°
2026-05-06 17:39 33.71863 33.41071 28028 ft 442 kts 16°
2026-05-06 17:39 33.74683 33.42506 27461 ft 438 kts 16°
2026-05-06 17:40 33.77482 33.43934 26880 ft 435 kts 17°
2026-05-06 17:40 33.80258 33.45354 26316 ft 431 kts 17°
2026-05-06 17:40 33.83003 33.46759 25761 ft 427 kts 17°
2026-05-06 17:40 33.85730 33.48153 25214 ft 423 kts 17°
2026-05-06 17:41 33.88434 33.49538 24675 ft 421 kts 17°
2026-05-06 17:41 33.91115 33.50913 24157 ft 418 kts 17°
2026-05-06 17:41 33.93741 33.52257 23656 ft 415 kts 17°
2026-05-06 17:41 33.96394 33.53615 23092 ft 412 kts 17°
2026-05-06 17:42 33.99013 33.54955 22612 ft 408 kts 17°
2026-05-06 17:42 34.01621 33.56294 22125 ft 404 kts 17°
2026-05-06 17:42 34.04207 33.57623 21640 ft 402 kts 17°
2026-05-06 17:42 34.06766 33.58937 21153 ft 399 kts 17°
2026-05-06 17:43 34.09322 33.60247 20666 ft 396 kts 17°
2026-05-06 17:43 34.11853 33.61546 20179 ft 394 kts 18°
2026-05-06 17:43 34.14378 33.62844 19659 ft 393 kts 18°
2026-05-06 17:43 34.16856 33.64123 19142 ft 391 kts 18°
2026-05-06 17:44 34.19352 33.65415 18622 ft 389 kts 18°
2026-05-06 17:44 34.21843 33.66703 18040 ft 388 kts 18°
2026-05-06 17:44 34.24324 33.67986 17499 ft 384 kts 18°
2026-05-06 17:44 34.26771 33.69249 16948 ft 380 kts 18°
2026-05-06 17:45 34.29168 33.70485 16422 ft 377 kts 18°
2026-05-06 17:45 34.31573 33.71726 15890 ft 374 kts 19°
2026-05-06 17:45 34.33956 33.72959 15350 ft 370 kts 20°
2026-05-06 17:45 34.36318 33.74182 14817 ft 367 kts 20°
2026-05-06 17:46 34.38662 33.75399 14284 ft 364 kts 20°
2026-05-06 17:46 34.40989 33.76608 13732 ft 362 kts 21°
2026-05-06 17:46 34.43296 33.77806 13174 ft 358 kts 20°
2026-05-06 17:46 34.45564 33.78897 12653 ft 352 kts 14°
2026-05-06 17:47 34.47959 33.79401 12131 ft 344 kts
2026-05-06 17:47 34.50323 33.79206 11614 ft 338 kts 347°
2026-05-06 17:47 34.51818 33.78716 11275 ft 334 kts 339°
2026-05-06 17:47 34.54696 33.77421 10608 ft 331 kts 339°
2026-05-06 17:48 34.56819 33.76465 10439 ft 318 kts 339°
2026-05-06 17:48 34.58848 33.75556 10316 ft 305 kts 339°
2026-05-06 17:48 34.60176 33.74965 10226 ft 297 kts 340°
2026-05-06 17:48 34.62134 33.74448 10106 ft 288 kts 354°
2026-05-06 17:49 34.64110 33.74548 9858 ft 284 kts
2026-05-06 17:49 34.66048 33.75104 9401 ft 287 kts 12°
2026-05-06 17:49 34.67970 33.75688 8981 ft 283 kts 12°
2026-05-06 17:49 34.69873 33.76263 8468 ft 280 kts 12°
2026-05-06 17:50 34.71760 33.76832 7965 ft 277 kts 13°
2026-05-06 17:50 34.73624 33.77391 7499 ft 273 kts 13°
2026-05-06 17:50 34.75442 33.77937 7064 ft 271 kts 13°
2026-05-06 17:50 34.77266 33.78486 6625 ft 269 kts 13°
2026-05-06 17:51 34.79071 33.79030 6176 ft 266 kts 13°
2026-05-06 17:51 34.80863 33.79569 5728 ft 264 kts 13°
2026-05-06 17:51 34.82648 33.80107 5401 ft 261 kts 13°
2026-05-06 17:51 34.84342 33.80618 5265 ft 241 kts 13°
2026-05-06 17:52 34.85939 33.81100 4934 ft 232 kts 13°
2026-05-06 17:52 34.87463 33.81557 4738 ft 223 kts 13°
2026-05-06 17:52 34.88968 33.82009 4621 ft 222 kts 13°
2026-05-06 17:52 34.90455 33.82457 4522 ft 223 kts 13°
2026-05-06 17:53 34.91966 33.82912 4424 ft 224 kts 12°
2026-05-06 17:53 34.93514 33.83057 4136 ft 224 kts 353°
2026-05-06 17:53 34.95012 33.82561 3829 ft 223 kts 334°
2026-05-06 17:53 34.96284 33.81503 3533 ft 221 kts 315°
2026-05-06 17:54 34.97201 33.80012 3221 ft 220 kts 297°
2026-05-06 17:54 34.97687 33.78211 2760 ft 227 kts 277°
2026-05-06 17:54 34.97640 33.76306 2521 ft 223 kts 258°
2026-05-06 17:54 34.97099 33.74564 2308 ft 219 kts 240°
2026-05-06 17:55 34.96164 33.73152 2047 ft 213 kts 226°
2026-05-06 17:55 34.95169 33.71938 1815 ft 191 kts 226°
2026-05-06 17:55 34.94270 33.70838 1573 ft 174 kts 226°
2026-05-06 17:55 34.93447 33.69829 1374 ft 161 kts 226°
2026-05-06 17:56 34.92712 33.68929 1185 ft 142 kts 226°
2026-05-06 17:56 34.92027 33.68090 1016 ft 137 kts 225°
2026-05-06 17:56 34.91358 33.67271 850 ft 136 kts 225°
2026-05-06 17:56 34.90695 33.66458 688 ft 134 kts 224°
2026-05-06 17:57 34.90040 33.65657 528 ft 134 kts 225°
2026-05-06 17:57 34.89387 33.64857 368 ft 133 kts 225°
2026-05-06 17:57 34.88733 33.64057 201 ft 133 kts 224°
2026-05-06 17:57 34.88082 33.63257 41 ft 132 kts 224°
2026-05-06 17:58 34.87506 33.62554 20 ft 96 kts 225°
2026-05-06 17:58 34.87140 33.62106 23 ft 64 kts 225°
2026-05-06 17:58 34.86956 33.61745 22 ft 29 kts 258°
2026-05-06 17:58 34.86919 33.61567 21 ft 23 kts 255°
2026-05-06 17:59 34.86885 33.61434 22 ft 14 kts 245°
2026-05-06 17:59 34.86923 33.61326 20 ft 17 kts 318°
2026-05-06 17:59 34.87012 33.61220 20 ft 20 kts 315°
2026-05-06 17:59 34.87034 33.61153 20 ft 6 kts 206°
2026-05-06 18:00 34.87001 33.61115 22 ft 7 kts 225°
2026-05-06 18:00 34.86982 33.61093 22 ft 0 kts 225°